Location: Valencia
(39.4670°N, 0.3670°W)
Time: 08:48:51
(UTC+02:00)

ISS - Pass Details

Date: 07 July 2017
Orbit: 400 x 408 km, 51.6° (Epoch: 21 July)

Event Time Altitude Azimuth Distance (km) Brightness Sun altitude
Exits shadow 04:32:37 18° 130° (SE) 1,049 -1.8 -19.2°
Drops below altitude 10° 04:34:54 10° 85° (E) 1,452 -0.5 -18.9°
Sets 04:37:23 0° 66° (ENE) 2,317 1.1 -18.6°
